This is the latest recevied weather packets stored in our database for station/object N0HOT. If no packets are shown the sender has not sent any weather packets the latest 10 day(s).
| Time | Temp. | Humidity | Pressure | Rain* | Wind** | Luminosity | Snow |
|---|---|---|---|---|---|---|---|
| 1777476984 | 7.22° C | 62% | 1018.5 hPa | 0 mm | - | 160 W/m² | - |
| 1777476682 | 7.22° C | 64% | 1018.5 hPa | 0 mm | - | 155 W/m² | - |
| 1777476378 | 7.78° C | 63% | 1018.5 hPa | 0 mm | - | 143 W/m² | - |
| 1777476075 | 7.78° C | 62% | 1018.1 hPa | 0 mm | - | 83 W/m² | - |
| 1777475769 | 7.78° C | 60% | 1018.5 hPa | 0 mm | - | 134 W/m² | - |
| 1777475466 | 7.78° C | 57% | 1018.5 hPa | 0 mm | - | 116 W/m² | - |
| 1777475162 | 7.78° C | 56% | 1018.1 hPa | 0 mm | - | 85 W/m² | - |
| 1777474858 | 7.78° C | 54% | 1018.1 hPa | 0 mm | - | 140 W/m² | - |
| 1777474554 | 7.78° C | 54% | 1018.1 hPa | 0 mm | - | 121 W/m² | - |
| 1777474251 | 7.22° C | 55% | 1017.8 hPa | 0 mm | - | 152 W/m² | - |
| 1777473948 | 7.22° C | 55% | 1017.8 hPa | 0 mm | - | 173 W/m² | - |
| 1777473646 | 7.22° C | 54% | 1018.1 hPa | 0 mm | - | 149 W/m² | - |
| 1777473342 | 7.22° C | 54% | 1017.8 hPa | 0 mm | - | 140 W/m² | - |
| 1777473038 | 7.22° C | 54% | 1017.8 hPa | 0 mm | - | 139 W/m² | - |
| 1777472734 | 7.78° C | 53% | 1017.3 hPa | 0 mm | - | 136 W/m² | - |
| 1777472431 | 7.78° C | 53% | 1017.8 hPa | 0 mm | - | 128 W/m² | - |
| 1777472129 | 7.78° C | 53% | 1017.8 hPa | 0 mm | - | 116 W/m² | - |
| 1777471828 | 7.78° C | 53% | 1017.8 hPa | 0 mm | - | 77 W/m² | - |
| 1777471526 | 8.33° C | 52% | 1017.8 hPa | 0 mm | - | 84 W/m² | - |
| 1777471222 | 8.33° C | 51% | 1017.8 hPa | 0 mm | - | 146 W/m² | - |
| 1777470919 | 7.78° C | 50% | 1017.8 hPa | 0 mm | - | 171 W/m² | - |
| 1777470616 | 7.78° C | 50% | 1017.3 hPa | 0 mm | - | 246 W/m² | - |
| 1777470312 | 7.78° C | 51% | 1017.3 hPa | 0 mm | - | 178 W/m² | - |
| 1777470009 | 7.78° C | 51% | 1017.8 hPa | 0 mm | - | 168 W/m² | - |
| 1777469704 | 7.78° C | 51% | 1017.8 hPa | 0 mm | - | 98 W/m² | - |
* Rain latest hour (hover to see other rain measurements)
** Current wind speed in m/s (hover to see current wind gust speed)